Location: Bavegemberg
(50.9500°N, 3.8833°E)
Time: 11:38:06
(UTC+00:00)

Cosmos 676 Rocket - Pass Details

Date: 23 May 2024
Orbit: 752 x 782 km, 74.0° (Epoch: 14 June)

Event Time Altitude Azimuth Distance (km) Brightness Sun altitude
Exits shadow 00:42:50 28° 175° (S) 1,449 4.9 -17.1°
Maximum altitude 00:45:32 57° 108° (ESE) 923 4.4 -17.0°
Drops below altitude 10° 00:50:45 10° 31° (NNE) 2,349 7.7 -16.8°
Sets 00:53:11 0° 28° (NNE) 3,281 8.9 -16.7°
